Home   Weather   Rheinfelden (Baden)   Past weeks

Flag for Germany Past Weather in Rheinfelden (Baden), Baden-Württemberg, Germany — Yesterday and Last 2 Weeks

Now
64 °F

Clear.


Feels Like: 64 °F
Forecast: 54 / 71 °F
Wind: 7 mph from South

Location: Bale-Mulhouse

Current Time: Aug 18, 2017 at 5:31:15 am

Latest Report: Aug 18, 2017 at 5:00 am


Visibility: 10 mi

Pressure: 30.04 "Hg

Humidity: 88%

Dew Point: 61 °F

Location of Rheinfelden (Baden)Location

Past Weather in Rheinfelden (Baden) — Graph

°F

Rheinfelden (Baden) Temperature Yesterday

Maximum temperature yesterday: 84 °F (at 4:30 pm)
Minimum temperature yesterday: 63 °F (at 2:00 am)
Average temperature yesterday: 73 °F

High & Low Weather Summary for the Past Weeks

 TemperatureHumidityPressure
High88 °F (Aug 3, 12:30 pm)100% (Aug 9, 7:00 am)30.21 "Hg (Aug 9, 7:00 am)
Low50 °F (Aug 7, 5:00 am)30% (Aug 7, 7:00 pm)29.83 "Hg (Aug 8, 5:30 am)
Average68 °F73%30.07 "Hg
* Reported Aug 3 4:00 am — Aug 18 4:00 am, Rheinfelden (Baden). Weather by CustomWeather, © 2017

Note: Actual official high and low records may vary slightly from our data, if they occured in-between our weather recording intervals... More about our weather records

Advertising

Rheinfelden (Baden) Weather History for the Previous 24 Hours

Scroll right to see more
 ConditionsComfort  
Time TempWeatherWind HumidityBarometerVisibility
4:00 am
Fri, Aug 18
64 °FClear.7 mph88%30.07 "Hg10 mi
3:30 am64 °FClear.6 mph94%30.07 "Hg10 mi
3:00 am63 °FClear.1 mph88%30.07 "Hg10 mi
2:30 am64 °FClear.3 mph88%30.07 "Hg10 mi
2:00 am64 °FClear.3 mph88%30.07 "Hg10 mi
1:30 am64 °FClear.3 mph88%30.07 "Hg10 mi
1:00 am64 °FClear.2 mph88%30.07 "Hg10 mi
12:30 am66 °FClear.1 mph83%30.07 "Hg10 mi
12:00 am66 °FClear.3 mph83%30.07 "Hg10 mi
11:30 pm
Thu, Aug 17
66 °FClear.1 mph83%30.07 "Hg10 mi
11:00 pm68 °FClear.2 mph78%30.07 "Hg10 mi
10:30 pm68 °FClear.1 mph78%30.07 "Hg10 mi
10:00 pm70 °FClear.3 mph73%30.07 "Hg10 mi
9:30 pm70 °FClear.5 mph73%30.07 "Hg10 mi
9:00 pm73 °FClear.2 mph69%30.07 "Hg10 mi
8:30 pm77 °FSunny.No wind57%30.07 "Hg10 mi
8:00 pm81 °FSunny.3 mph51%30.07 "Hg10 mi
7:30 pm81 °FPassing clouds.5 mph48%30.07 "HgN/A
7:00 pm81 °FPassing clouds.7 mph48%30.07 "HgN/A
6:30 pm82 °FPassing clouds.7 mph48%30.07 "HgN/A
6:00 pm84 °FSunny.7 mph45%30.07 "Hg10 mi
5:30 pm84 °FScattered clouds.8 mph43%30.07 "HgN/A
5:00 pm84 °FPassing clouds.8 mph45%30.07 "HgN/A
4:30 pm84 °FPassing clouds.8 mph45%30.07 "HgN/A
4:00 pm82 °FPassing clouds.10 mph51%30.09 "HgN/A
3:30 pm82 °FPassing clouds.9 mph48%30.09 "HgN/A
3:00 pm82 °FScattered clouds.8 mph51%30.09 "HgN/A
2:30 pm82 °FPassing clouds.8 mph48%30.09 "HgN/A
2:00 pm81 °FPassing clouds.9 mph51%30.09 "HgN/A
1:30 pm81 °FScattered clouds.9 mph51%30.09 "HgN/A
1:00 pm81 °FBroken clouds.10 mph51%30.12 "HgN/A
12:30 pm81 °FBroken clouds.9 mph54%30.12 "HgN/A
12:00 pm81 °FBroken clouds.7 mph54%30.12 "HgN/A
11:30 am79 °FPartly sunny.3 mph61%30.12 "HgN/A
11:00 am75 °FBroken clouds.3 mph69%30.12 "HgN/A
10:30 am73 °FBroken clouds.5 mph74%30.12 "HgN/A
10:00 am73 °FBroken clouds.5 mph74%30.12 "HgN/A
9:30 am72 °FBroken clouds.7 mph78%30.12 "HgN/A
9:00 am70 °FScattered clouds.6 mph83%30.12 "HgN/A
8:30 am68 °FScattered clouds.7 mph88%30.12 "HgN/A
8:00 am66 °FBroken clouds.6 mph94%30.12 "HgN/A
7:30 am64 °FBroken clouds.5 mph94%30.12 "HgN/A
7:00 am64 °FSunny.7 mph94%30.12 "Hg10 mi
6:30 am64 °FSunny.6 mph94%30.12 "Hg10 mi
6:00 am64 °FClear.3 mph94%30.09 "Hg10 mi
5:30 am64 °FClear.3 mph94%30.09 "Hg10 mi
5:00 am64 °FClear.6 mph94%30.09 "Hg10 mi
Weather by CustomWeather, © 2017

See weather overviewHow to use our weather pages